When you browse on this site, cookies collect data to enhance your experience and personalize the content and advertising you see.
Visit our Privacy Policy to learn more. By continuing to use the site, you agree to this use of cookies and data.
  • In United Kingdom
  • List of Countries
  • For 7 days
  • Water Temperature
  • Satellite Maps
  • Weather Map
  • Weather Widgets
  • user-avatar
    Login

    Hourly Weather Solden

    Today, 12 December, Wednesday

    Time Temperature Precipitation Wind Pressure Humidity
    00:00 -18°C° 0 mm 2 mps 576 mmHg 75%
    01:00 -18°C° 0 mm 2 mps 576 mmHg 73%
    02:00 -18°C° 0 mm 2 mps 576 mmHg 73%
    03:00 -18°C° 0 mm 2 mps 576 mmHg 72%
    04:00 -18°C° 0 mm 2 mps 576 mmHg 72%
    05:00 -18°C° 0 mm 2 mps 576 mmHg 72%
    06:00 -18°C° 0 mm 2 mps 576 mmHg 72%
    07:00 -18°C° 0 mm 2 mps 576 mmHg 72%
    08:00 -17°C° 0 mm 2 mps 576 mmHg 70%
    09:00 -15°C° 0 mm 2 mps 577 mmHg 68%
    10:00 -12°C° 0 mm 1 mps 578 mmHg 66%
    11:00 -10°C° 0 mm 1 mps 579 mmHg 62%
    12:00 -9°C° 0 mm 1 mps 579 mmHg 57%
    13:00 -7°C° 0 mm 1 mps 579 mmHg 53%
    14:00 -9°C° 0 mm 1 mps 578 mmHg 58%
    15:00 -11°C° 0 mm 0 mps 577 mmHg 63%
    16:00 -12°C° 0 mm 0 mps 576 mmHg 67%
    17:00 -13°C° 0 mm 0 mps 576 mmHg 68%
    18:00 -14°C° 0 mm 1 mps 575 mmHg 70%
    19:00 -15°C° 0 mm 1 mps 575 mmHg 71%
    20:00 -15°C° 0 mm 1 mps 575 mmHg 70%
    21:00 -16°C° 0 mm 1 mps 575 mmHg 69%
    22:00 -16°C° 0 mm 1 mps 575 mmHg 67%
    23:00 -16°C° 0 mm 1 mps 575 mmHg 67%

    Tomorrow, 13 December, Thursday

    Time Temperature Precipitation Wind Pressure Humidity
    00:00 -16°C° 0 mm 1 mps 574 mmHg 67%
    01:00 -18°C° 0 mm 2 mps 574 mmHg 66%
    02:00 -18°C° 0 mm 2 mps 574 mmHg 67%
    03:00 -18°C° 0 mm 2 mps 574 mmHg 67%
    04:00 -18°C° 0 mm 2 mps 573 mmHg 68%
    05:00 -19°C° 0 mm 2 mps 573 mmHg 68%
    06:00 -19°C° 0 mm 2 mps 573 mmHg 68%
    07:00 -19°C° 0 mm 2 mps 573 mmHg 69%
    08:00 -17°C° 0 mm 2 mps 573 mmHg 68%
    09:00 -16°C° 0 mm 2 mps 574 mmHg 67%
    10:00 -14°C° 0 mm 2 mps 574 mmHg 66%
    11:00 -13°C° 0 mm 2 mps 575 mmHg 66%
    12:00 -12°C° 0 mm 2 mps 575 mmHg 65%
    13:00 -10°C° 0 mm 2 mps 575 mmHg 64%
    14:00 -10°C° 0 mm 1 mps 574 mmHg 68%
    15:00 -11°C° 0 mm 1 mps 574 mmHg 72%
    16:00 -12°C° 0 mm 1 mps 573 mmHg 76%
    17:00 -13°C° 0 mm 1 mps 573 mmHg 77%
    18:00 -16°C° 0 mm 2 mps 572 mmHg 79%
    19:00 -17°C° 0 mm 2 mps 572 mmHg 80%
    20:00 -16°C° 0 mm 2 mps 572 mmHg 79%
    21:00 -16°C° 0 mm 2 mps 573 mmHg 79%
    22:00 -16°C° 0 mm 2 mps 573 mmHg 78%
    23:00 -16°C° 0 mm 2 mps 573 mmHg 77%

    Day after tomorrow, 14 December, Friday

    Time Temperature Precipitation Wind Pressure Humidity
    00:00 -16°C° 0 mm 2 mps 573 mmHg 77%
    01:00 -16°C° 0 mm 2 mps 573 mmHg 76%
    02:00 -15°C° 0 mm 2 mps 573 mmHg 76%
    03:00 -15°C° 0 mm 2 mps 573 mmHg 77%
    04:00 -15°C° 0 mm 2 mps 573 mmHg 78%
    05:00 -13°C° 0 mm 1 mps 573 mmHg 78%
    06:00 -13°C° 0 mm 1 mps 573 mmHg 79%
    07:00 -13°C° 0 mm 1 mps 573 mmHg 79%
    08:00 -12°C° 0 mm 1 mps 574 mmHg 78%
    09:00 -10°C° 0 mm 1 mps 575 mmHg 76%
    10:00 -9°C° 0 mm 1 mps 576 mmHg 74%
    11:00 -8°C° 0 mm 1 mps 576 mmHg 72%
    12:00 -7°C° 0 mm 1 mps 577 mmHg 69%
    13:00 -5°C° 0 mm 0 mps 577 mmHg 66%
    14:00 -7°C° 0 mm 0 mps 577 mmHg 72%
    15:00 -8°C° 0 mm 0 mps 576 mmHg 77%
    16:00 -9°C° 0 mm 0 mps 576 mmHg 82%
    17:00 -10°C° 0 mm 0 mps 576 mmHg 83%
    18:00 -11°C° 0 mm 1 mps 576 mmHg 85%
    19:00 -12°C° 0 mm 1 mps 576 mmHg 86%
    20:00 -12°C° 0 mm 1 mps 576 mmHg 85%
    21:00 -12°C° 0 mm 1 mps 576 mmHg 84%
    22:00 -13°C° 0 mm 1 mps 576 mmHg 83%
    23:00 -13°C° 0 mm 1 mps 576 mmHg 82%

    15 December, Saturday

    Time Temperature Precipitation Wind Pressure Humidity
    00:00 -13°C° 0 mm 1 mps 576 mmHg 80%
    01:00 -13°C° 0 mm 1 mps 576 mmHg 79%
    02:00 -13°C° 0 mm 1 mps 576 mmHg 79%
    03:00 -14°C° 0 mm 1 mps 576 mmHg 79%
    04:00 -16°C° 0 mm 2 mps 576 mmHg 79%
    05:00 -16°C° 0 mm 2 mps 576 mmHg 79%
    06:00 -16°C° 0 mm 2 mps 576 mmHg 79%
    07:00 -16°C° 0 mm 2 mps 576 mmHg 80%
    08:00 -15°C° 0 mm 2 mps 577 mmHg 77%
    09:00 -14°C° 0 mm 2 mps 578 mmHg 75%
    10:00 -10°C° 0 mm 1 mps 579 mmHg 72%
    11:00 -9°C° 0 mm 1 mps 579 mmHg 68%
    12:00 -8°C° 0 mm 1 mps 580 mmHg 64%
    13:00 -6°C° 0 mm 1 mps 580 mmHg 60%
    14:00 -8°C° 0 mm 1 mps 579 mmHg 64%
    15:00 -10°C° 0 mm 1 mps 579 mmHg 68%
    16:00 -11°C° 0 mm 1 mps 578 mmHg 72%
    17:00 -12°C° 0 mm 1 mps 578 mmHg 67%
    18:00 -13°C° 0 mm 1 mps 578 mmHg 62%
    19:00 -16°C° 0 mm 2 mps 577 mmHg 58%
    20:00 -16°C° 0 mm 2 mps 578 mmHg 53%
    21:00 -14°C° 0 mm 1 mps 578 mmHg 49%
    22:00 -14°C° 0 mm 1 mps 578 mmHg 44%
    23:00 -13°C° 0 mm 1 mps 578 mmHg 42%

    16 December, Sunday

    Time Temperature Precipitation Wind Pressure Humidity
    00:00 -13°C° 0 mm 1 mps 578 mmHg 40%
    01:00 -13°C° 0 mm 1 mps 578 mmHg 38%
    02:00 -12°C° 0 mm 1 mps 578 mmHg 38%
    03:00 -11°C° 0 mm 1 mps 578 mmHg 38%
    04:00 -11°C° 0 mm 1 mps 578 mmHg 38%
    05:00 -10°C° 0 mm 1 mps 579 mmHg 44%
    06:00 -9°C° 0 mm 1 mps 579 mmHg 49%
    07:00 -8°C° 0 mm 1 mps 579 mmHg 55%
    08:00 -7°C° 0.2 mm 1 mps 580 mmHg 57%
    09:00 -6°C° 0.2 mm 1 mps 581 mmHg 60%
    10:00 -3°C° 0.2 mm 1 mps 582 mmHg 63%
    11:00 -2°C° 0.1 mm 1 mps 582 mmHg 64%
    12:00 -1°C° 0.1 mm 1 mps 582 mmHg 65%
    13:00 0°C° 0.1 mm 1 mps 582 mmHg 66%
    14:00 -1°C° 0 mm 1 mps 582 mmHg 68%
    15:00 -2°C° 0 mm 1 mps 581 mmHg 70%
    16:00 -2°C° 0 mm 1 mps 581 mmHg 72%
    17:00 -3°C° 0 mm 1 mps 581 mmHg 72%
    18:00 -3°C° 0 mm 1 mps 581 mmHg 73%
    19:00 -3°C° 0 mm 1 mps 581 mmHg 74%
    20:00 -4°C° 0 mm 1 mps 581 mmHg 74%
    21:00 -4°C° 0 mm 1 mps 580 mmHg 74%
    22:00 -4°C° 0 mm 1 mps 580 mmHg 74%
    23:00 -4°C° 0 mm 1 mps 580 mmHg 75%

    17 December, Monday

    Time Temperature Precipitation Wind Pressure Humidity
    00:00 -4°C° 0 mm 1 mps 580 mmHg 75%
    01:00 -6°C° 0 mm 1 mps 580 mmHg 75%
    02:00 -7°C° 0 mm 2 mps 580 mmHg 76%
    03:00 -7°C° 0 mm 2 mps 579 mmHg 76%
    04:00 -7°C° 0 mm 2 mps 579 mmHg 76%
    05:00 -6°C° 0.1 mm 1 mps 579 mmHg 78%
    06:00 -6°C° 0.1 mm 1 mps 579 mmHg 80%
    07:00 -6°C° 0.1 mm 1 mps 579 mmHg 81%
    08:00 -4°C° 0.2 mm 1 mps 580 mmHg 81%
    09:00 -3°C° 0.2 mm 1 mps 580 mmHg 81%
    10:00 -3°C° 0.2 mm 1 mps 581 mmHg 81%
    11:00 -2°C° 0.4 mm 1 mps 580 mmHg 81%
    12:00 -1°C° 0.4 mm 1 mps 580 mmHg 81%
    13:00 -1°C° 0.4 mm 1 mps 580 mmHg 82%
    14:00 -1°C° 0.4 mm 1 mps 580 mmHg 84%
    15:00 -2°C° 0.4 mm 1 mps 579 mmHg 87%
    16:00 -2°C° 0.4 mm 1 mps 579 mmHg 90%
    17:00 -3°C° 0.4 mm 1 mps 579 mmHg 91%
    18:00 -3°C° 0.4 mm 1 mps 578 mmHg 92%
    19:00 -4°C° 0.4 mm 1 mps 578 mmHg 93%
    20:00 -4°C° 1 mm 1 mps 578 mmHg 93%
    21:00 -4°C° 1 mm 1 mps 578 mmHg 94%
    22:00 -4°C° 1 mm 1 mps 579 mmHg 94%
    23:00 -6°C° 1 mm 2 mps 579 mmHg 94%
    Show more